Location: Peterborough
(44.3091°N, 78.3197°W)
Time: 16:07:54
(UTC-04:00)

Explorer 7 - Pass Details

Date: 30 March 2023
Orbit: 477 x 653 km, 50.3° (Epoch: 04 June)

Event Time Altitude Azimuth Distance (km) Brightness Sun altitude
Rises 14:46:52 0° 200° (SSW) 2,960 11.3 45.1°
Reaches altitude 10° 14:49:38 10° 186° (S) 2,039 10.6 44.8°
Maximum altitude 14:53:15 22° 135° (SE) 1,380 9.2 44.4°
Drops below altitude 10° 14:56:47 10° 85° (E) 1,987 9.5 44.1°
Sets 14:59:26 0° 70° (ENE) 2,864 10.1 43.8°
